Location: Mercogliano
(40.9167°N, 14.7333°E)
Time: 21:05:59
(UTC+00:00)

CZ-2C R/B - Pass Details

Date: 17 January 2021
Orbit: 785 x 870 km, 98.2° (Epoch: 06 March)

Event Time Altitude Azimuth Distance (km) Brightness Sun altitude
Exits shadow 18:43:09 65° 313° (NW) 943 2.9 -30.4°
Maximum altitude 18:43:33 67° 286° (WNW) 928 2.9 -30.5°
Drops below altitude 10° 18:49:04 10° 205° (SSW) 2,501 5.4 -31.5°
Sets 18:51:28 0° 203° (SSW) 3,439 6.1 -32.0°
